SCP
0 0 0 0 0 0 0 0 0 0 0 0 0 0 0 0 0 0 0 0 0 0
0 0 0 0 0 0 0 0 0 0 0 0 0 0 0 0 0 0 0 0 0 0
0 0 0 0 0 0 0 0 0 0 0 0 0 0 0 0 0 0 0 0 0 0
0 0 0 0 0 0 0 -0 0 0 0 0 0 0 0 0 0 0 0 0 0 0
0 0 0 0 0 0 0 0 0 0 0 0 0 0 0 0 0 0 0 0 0 0
0 0 0 0 0 0 0 0 0 0 0 0 0 0 0 0 0 0 0 0 0 0
0 0 0 0 0 0 0 0 0 0 0 0 0 0 0 0 0 0 0 0 0 0
0 0 0 0 0 0 0 0 0 0 0 0 0 0 0 0 0 0 0 0 0 0
0 0 0 0 0 0 0 0 0 0 0 -0 0 0 0 0 0 0 0 0 0 0
0 0 0 0 0 0 0 0 -0 0 0 0 0 -0 -0 -0 0 0 0 0 0 0
0 0 0 -0 0 -0 -0 -0 -0 -0 -0 -0 -0 -0 -0 -0 -0 0 0 0 0 0
0 -0 -0 0 0 0 0 0 0 0 0 0 0 0 -0 -0 -0 -0 0 -0 0 0
-0 -0 -0 -0 -0 -0 -0 -0 -0 -0 0 0 0 -0 -0 -0 -0 -0 -0 -0 0 0
-0 -0 -0 -0 -0 -0 -0 -0 -0 -0 0 0 0 -0 -0 -0 -0 -0 -0 -0 -0 -0
Wind_Speed_500mb
75 64 61 63 81 74 63 63 64 62 54 51 46 42 44 39 35 30 28 29 22 18
65 61 64 74 71 52 57 56 53 51 43 45 32 37 33 33 31 26 28 29 32 26
58 55 64 59 62 57 58 56 49 44 38 30 26 31 32 29 27 21 18 22 23 22
48 51 50 60 58 48 53 50 37 35 31 26 25 29 27 24 20 14 12 10 8 8
44 47 49 53 40 40 41 34 33 24 24 20 23 20 20 17 14 12 9 7 4 4
46 47 49 43 44 33 30 25 28 24 17 16 17 19 19 17 13 10 12 9 6 4
45 32 45 38 37 28 25 21 18 17 18 19 17 16 16 16 12 9 10 9 8 4
34 38 32 31 32 23 18 18 20 19 18 20 19 21 22 21 18 9 12 8 7 7
39 27 27 28 19 13 15 19 23 24 24 22 22 27 28 27 16 13 18 23 12 14
18 23 26 25 32 34 30 25 22 22 22 23 24 27 32 24 20 21 24 27 30 22
20 25 24 23 26 28 28 27 28 28 26 23 26 29 32 28 24 27 25 27 33 33
23 21 22 24 22 22 25 26 24 25 24 24 25 30 31 31 22 24 25 23 23 25
17 22 21 21 20 24 26 23 23 24 24 23 24 25 25 25 25 28 20 21 23 22
25 28 29 34 22 24 28 38 27 26 26 28 28 25 27 24 17 18 20 21 26 30
Wind_Direction_500mb
304 308 306 307 311 304 300 302 302 303 294 296 300 303 307 306 296 287 284 279 298 291
308 309 307 312 318 313 313 312 306 304 295 298 303 308 319 315 305 299 289 282 279 290
312 308 311 313 315 315 314 315 310 303 294 302 311 317 316 313 309 306 306 297 284 285
316 318 319 321 321 317 320 316 311 307 320 313 315 318 317 318 318 322 330 327 301 276
322 326 331 331 334 317 331 331 325 331 325 320 319 326 333 337 342 348 359 351 329 320
328 326 329 334 329 330 327 325 321 321 325 328 334 335 333 332 339 12 8 3 20 13
326 324 330 332 336 337 334 334 340 343 341 338 342 344 348 347 351 25 37 22 16 330
334 331 338 345 350 357 8 31 25 21 46 40 36 36 28 24 24 36 46 40 20 63
333 350 1 359 355 1 352 359 60 43 38 42 44 29 25 19 19 71 68 55 66 114
19 25 34 26 51 48 51 48 40 38 40 47 52 38 19 31 61 67 75 52 60 78
59 43 34 37 35 38 40 48 53 50 50 56 50 42 50 48 69 65 71 58 56 63
51 43 38 40 44 39 47 57 57 55 51 57 50 50 48 43 65 71 71 75 65 63
29 39 43 45 51 61 50 49 50 49 49 49 47 45 40 56 62 59 68 57 38 46
65 57 45 56 64 61 46 54 54 47 46 47 31 37 47 42 73 65 64 64 64 57
Wind_Speed_850mb
75 64 61 63 81 74 63 63 64 62 54 51 46 42 44 39 35 30 28 29 22 18
65 61 64 74 71 52 57 56 53 51 43 45 32 37 33 33 31 26 28 29 32 26
58 55 64 59 62 57 58 56 49 44 38 30 26 31 32 29 27 21 18 22 23 22
48 51 50 60 58 48 53 50 37 35 31 26 25 29 27 24 20 14 12 10 8 8
44 47 49 53 40 40 41 34 33 24 24 20 23 20 20 17 14 12 9 7 4 4
46 47 49 43 44 33 30 25 28 24 17 16 17 19 19 17 13 10 12 9 6 4
45 32 45 38 37 28 25 21 18 17 18 19 17 16 16 16 12 9 10 9 8 4
34 38 32 31 32 23 18 18 20 19 18 20 19 21 22 21 18 9 12 8 7 7
39 27 27 28 19 13 15 19 23 24 24 22 22 27 28 27 16 13 18 23 12 14
18 23 26 25 32 34 30 25 22 22 22 23 24 27 32 24 20 21 24 27 30 22
20 25 24 23 26 28 28 27 28 28 26 23 26 29 32 28 24 27 25 27 33 33
23 21 22 24 22 22 25 26 24 25 24 24 25 30 31 31 22 24 25 23 23 25
17 22 21 21 20 24 26 23 23 24 24 23 24 25 25 25 25 28 20 21 23 22
25 28 29 34 22 24 28 38 27 26 26 28 28 25 27 24 17 18 20 21 26 30
Wind_Direction_850mb
304 308 306 307 311 304 300 302 302 303 294 296 300 303 307 306 296 287 284 279 298 291
308 309 307 312 318 313 313 312 306 304 295 298 303 308 319 315 305 299 289 282 279 290
312 308 311 313 315 315 314 315 310 303 294 302 311 317 316 313 309 306 306 297 284 285
316 318 319 321 321 317 320 316 311 307 320 313 315 318 317 318 318 322 330 327 301 276
322 326 331 331 334 317 331 331 325 331 325 320 319 326 333 337 342 348 359 351 329 320
328 326 329 334 329 330 327 325 321 321 325 328 334 335 333 332 339 12 8 3 20 13
326 324 330 332 336 337 334 334 340 343 341 338 342 344 348 347 351 25 37 22 16 330
334 331 338 345 350 357 8 31 25 21 46 40 36 36 28 24 24 36 46 40 20 63
333 350 1 359 355 1 352 359 60 43 38 42 44 29 25 19 19 71 68 55 66 114
19 25 34 26 51 48 51 48 40 38 40 47 52 38 19 31 61 67 75 52 60 78
59 43 34 37 35 38 40 48 53 50 50 56 50 42 50 48 69 65 71 58 56 63
51 43 38 40 44 39 47 57 57 55 51 57 50 50 48 43 65 71 71 75 65 63
29 39 43 45 51 61 50 49 50 49 49 49 47 45 40 56 62 59 68 57 38 46
65 57 45 56 64 61 46 54 54 47 46 47 31 37 47 42 73 65 64 64 64 57